Date String (YYYY-MM-DD hh:mm:ss) UTC,Instrument flags,absolute air pressure of the measurement (hPa),sample flow rate (lpm),inlet stack bypass flow (lpm),air temperature of the measurement (°C),ambient temperature measured by the external sensor (°C),aerosol sample conditioner tube jacket temperature (°C),OPC LED temperature (°C),internal box temperature (°C),relative humidity of the measurement (%),span deviation,mass concentration of particles derived from Lorenz-Mie calculation of OPC scattering (μg/m³),mass concentration of particles derived from Lorenz-Mie calculation of OPC scattering (μg/m³),mass concentration of particles derived from Lorenz-Mie calculation of OPC scattering (μg/m³)
DateTimeUTC,F1_M11,P_M11,Q1_M11,Q2_M11,T1_M11,T2_M11,T3_M11,T4_M11,T5_M11,U1_M11,ZSPAN_M11,X0_M11,X2_M11,X1_M11
2023-11-16 20:00:00,SystemResetWarning,0822.7,4.99,000.00,027.8,026.8,000.0,036.1,029.3,15.7,0000.0,0017.78,0002.12,0000.36
2023-11-16 20:01:00,SystemResetWarning,0822.7,5.01,000.00,027.8,026.8,000.0,036.1,029.3,15.8,0000.0,0018.15,0002.12,0000.37
2023-11-16 20:02:00,SystemResetWarning,0822.6,5.00,000.00,027.8,026.8,000.0,036.1,029.3,15.8,0000.0,0018.82,0002.23,0000.37
2023-11-16 20:03:00,SystemResetWarning,0822.7,5.00,000.00,027.8,026.8,000.0,036.1,029.2,15.8,0000.0,0017.52,0002.25,0000.37
2023-11-16 20:04:00,SystemResetWarning,0822.6,5.00,000.00,027.8,026.8,000.0,036.1,029.3,15.7,0000.0,0015.78,0002.08,0000.36
2023-11-16 20:05:00,SystemResetWarning,0822.6,5.00,000.00,027.8,026.8,000.0,036.1,029.3,15.6,0000.0,0015.10,0002.04,0000.35
2023-11-16 20:06:00,SystemResetWarning,0822.7,5.00,000.00,027.8,026.8,000.0,036.1,029.3,15.5,0000.0,0014.03,0001.91,0000.35
2023-11-16 20:07:00,SystemResetWarning,0822.6,4.99,000.00,027.8,026.8,000.0,036.2,029.3,15.4,0000.0,0013.64,0001.76,0000.34
2023-11-16 20:08:00,SystemResetWarning,0822.6,4.99,000.00,027.8,026.8,000.0,036.2,029.3,15.3,0000.0,0013.00,0001.58,0000.31
2023-11-16 20:09:00,SystemResetWarning,0822.6,5.01,000.00,027.9,026.8,000.0,036.2,029.3,15.2,0000.0,0012.57,0001.35,0000.29
2023-11-16 20:10:00,SystemResetWarning,0822.6,5.02,000.00,027.9,026.9,000.0,036.2,029.3,15.0,0000.0,0012.05,0001.30,0000.28
2023-11-16 20:11:00,SystemResetWarning,0822.6,5.00,000.00,027.9,026.9,000.0,036.2,029.3,15.2,0000.0,0011.83,0001.39,0000.27
2023-11-16 20:12:00,SystemResetWarning,0822.7,5.00,000.00,027.9,026.9,000.0,036.2,029.3,15.1,0000.0,0011.20,0001.41,0000.27
2023-11-16 20:13:00,SystemResetWarning,0822.5,5.00,000.00,027.9,026.9,000.0,036.2,029.3,15.0,0000.0,0010.01,0001.29,0000.26
2023-11-16 20:14:00,SystemResetWarning,0822.5,5.00,000.00,027.9,026.9,000.0,036.2,029.3,15.0,0000.0,0008.91,0001.11,0000.25
2023-11-16 20:15:00,SystemResetWarning,0822.7,5.00,000.00,027.9,026.9,000.0,036.2,029.3,14.9,0000.0,0007.48,0001.08,0000.24
2023-11-16 20:16:00,SystemResetWarning,0822.7,5.00,000.00,027.9,026.9,000.0,036.2,029.3,15.0,0000.0,0008.89,0001.57,0000.28
2023-11-16 20:17:00,SystemResetWarning,0822.7,5.00,000.00,027.8,026.9,000.0,036.2,029.3,14.9,0000.0,0009.17,0001.68,0000.29
2023-11-16 20:18:00,SystemResetWarning,0822.8,5.00,000.00,027.8,026.9,000.0,036.2,029.3,15.0,0000.0,0010.17,0001.90,0000.31
2023-11-16 20:19:00,SystemResetWarning,0822.7,4.99,000.00,027.9,026.9,000.0,036.2,029.3,15.0,0000.0,0011.40,0002.12,0000.33
2023-11-16 20:20:00,SystemResetWarning,0822.8,4.99,000.00,027.9,026.9,000.0,036.2,029.3,14.9,0000.0,0012.44,0002.24,0000.34
2023-11-16 20:21:00,SystemResetWarning,0822.8,5.00,000.00,027.9,026.9,000.0,036.2,029.3,14.9,0000.0,0012.87,0002.23,0000.34
2023-11-16 20:22:00,SystemResetWarning,0822.7,5.01,000.00,027.9,026.9,000.0,036.2,029.3,14.9,0000.0,0013.63,0002.13,0000.34
2023-11-16 20:23:00,SystemResetWarning,0822.9,5.00,000.00,027.9,026.9,000.0,036.2,029.3,14.6,0000.0,0013.39,0002.14,0000.35
2023-11-16 20:24:00,SystemResetWarning,0822.7,5.00,000.00,027.9,026.9,000.0,036.2,029.3,14.7,0000.0,0013.27,0002.17,0000.36
2023-11-16 20:25:00,SystemResetWarning,0822.8,5.00,000.00,027.9,026.9,000.0,036.2,029.3,14.7,0000.0,0013.75,0002.21,0000.37
2023-11-16 20:26:00,SystemResetWarning,0822.8,4.99,000.00,027.9,026.9,000.0,036.2,029.3,14.7,0000.0,0014.97,0002.30,0000.38
2023-11-16 20:27:00,SystemResetWarning,0822.7,5.01,000.00,027.9,026.9,000.0,036.2,029.3,14.8,0000.0,0013.78,0001.91,0000.35
2023-11-16 20:28:00,SystemResetWarning,0822.9,5.01,000.00,027.9,026.9,000.0,036.2,029.3,14.7,0000.0,0013.55,0001.81,0000.34
2023-11-16 20:29:00,SystemResetWarning,0822.8,4.99,000.00,027.9,026.9,000.0,036.2,029.3,14.8,0000.0,0012.60,0001.58,0000.32
2023-11-16 20:30:00,SystemResetWarning,0822.8,5.01,000.00,027.9,026.9,000.0,036.2,029.3,14.8,0000.0,0011.08,0001.43,0000.31
2023-11-16 20:31:00,SystemResetWarning,0822.7,5.01,000.00,027.9,026.9,000.0,036.2,029.3,14.8,0000.0,0010.07,0001.38,0000.30
2023-11-16 20:32:00,SystemResetWarning,0822.8,4.99,000.00,027.9,026.9,000.0,036.2,029.3,14.9,0000.0,0010.16,0001.47,0000.32
2023-11-16 20:33:00,SystemResetWarning,0823.0,5.00,000.00,027.9,026.9,000.0,036.3,029.3,15.0,0000.0,0009.81,0001.58,0000.34
2023-11-16 20:34:00,SystemResetWarning,0823.0,5.01,000.00,027.9,026.9,000.0,036.3,029.3,15.0,0000.0,0011.19,0001.71,0000.36
2023-11-16 20:35:00,SystemResetWarning,0823.0,5.00,000.00,027.9,026.9,000.0,036.3,029.3,15.1,0000.0,0012.48,0001.76,0000.36
2023-11-16 20:36:00,SystemResetWarning,0822.8,5.00,000.00,027.8,026.9,000.0,036.3,029.3,15.1,0000.0,0013.62,0001.78,0000.37
2023-11-16 20:37:00,SystemResetWarning,0823.0,5.00,000.00,027.8,026.9,000.0,036.2,029.3,14.8,0000.0,0013.16,0001.81,0000.39
2023-11-16 20:38:00,SystemResetWarning,0823.1,5.00,000.00,027.8,026.9,000.0,036.2,029.3,15.0,0000.0,0014.37,0001.95,0000.41
2023-11-16 20:39:00,SystemResetWarning,0822.9,5.01,000.00,027.8,026.9,000.0,036.2,029.3,14.7,0000.0,0016.12,0002.11,0000.42
2023-11-16 20:40:00,SystemResetWarning,0822.9,5.01,000.00,027.8,026.9,000.0,036.2,029.3,14.7,0000.0,0015.98,0002.14,0000.44
2023-11-16 20:41:00,SystemResetWarning,0822.9,5.00,000.00,027.8,026.9,000.0,036.2,029.3,14.6,0000.0,0015.66,0002.14,0000.46
2023-11-16 20:42:00,SystemResetWarning,0822.9,5.00,000.00,027.8,026.9,000.0,036.2,029.2,14.8,0000.0,0014.97,0002.04,0000.47
2023-11-16 20:43:00,SystemResetWarning,0823.1,4.99,000.00,027.8,026.9,000.0,036.2,029.2,14.8,0000.0,0014.64,0002.03,0000.47
2023-11-16 20:44:00,SystemResetWarning,0823.2,5.00,000.00,027.8,026.9,000.0,036.2,029.2,14.8,0000.0,0014.05,0001.91,0000.47
2023-11-16 20:45:00,SystemResetWarning,0823.1,5.00,000.00,027.8,026.9,000.0,036.2,029.2,14.8,0000.0,0012.63,0001.75,0000.45
2023-11-16 20:46:00,SystemResetWarning,0823.2,5.01,000.00,027.8,026.9,000.0,036.2,029.2,14.8,0000.0,0012.47,0001.75,0000.47
2023-11-16 20:47:00,SystemResetWarning,0823.2,5.00,000.00,027.8,026.9,000.0,036.2,029.2,14.8,0000.0,0011.63,0001.75,0000.48
2023-11-16 20:48:00,SystemResetWarning,0823.2,4.99,000.00,027.8,026.9,000.0,036.2,029.2,14.8,0000.0,0012.33,0001.69,0000.47
2023-11-16 20:49:00,SystemResetWarning,0823.3,5.00,000.00,027.8,026.8,000.0,036.2,029.2,14.8,0000.0,0011.09,0001.49,0000.46
2023-11-16 20:50:00,SystemResetWarning,0823.5,5.00,000.00,027.9,026.8,000.0,036.2,029.2,14.9,0000.0,0010.06,0001.42,0000.45
2023-11-16 20:51:00,SystemResetWarning,0823.3,5.00,000.00,027.9,026.8,000.0,036.2,029.3,14.9,0000.0,0010.51,0001.35,0000.44
2023-11-16 20:52:00,SystemResetWarning,0823.4,5.00,000.00,027.9,026.8,000.0,036.2,029.3,14.9,0000.0,0010.51,0001.35,0000.44
2023-11-16 20:53:00,SystemResetWarning,0823.4,5.00,000.00,027.9,026.8,000.0,036.2,029.3,14.9,0000.0,0010.84,0001.43,0000.44
2023-11-16 20:54:00,SystemResetWarning,0823.5,5.00,000.00,027.9,026.8,000.0,036.2,029.3,15.0,0000.0,0011.43,0001.43,0000.45
2023-11-16 20:55:00,SystemResetWarning,0823.5,5.00,000.00,027.9,026.8,000.0,036.2,029.3,15.0,0000.0,0011.74,0001.42,0000.45
2023-11-16 20:56:00,SystemResetWarning,0823.5,5.00,000.00,027.9,026.8,000.0,036.2,029.3,14.9,0000.0,0011.71,0001.43,0000.45
2023-11-16 20:57:00,SystemResetWarning,0823.5,5.00,000.00,027.9,026.8,000.0,036.2,029.3,15.0,0000.0,0011.14,0001.45,0000.46
2023-11-16 20:58:00,SystemResetWarning,0823.6,5.00,000.00,027.9,026.8,000.0,036.2,029.3,15.0,0000.0,0010.38,0001.41,0000.46
2023-11-16 20:59:00,SystemResetWarning,0823.5,5.00,000.00,027.9,026.8,000.0,036.2,029.3,14.9,0000.0,0009.65,0001.41,0000.46
